N6EQ Weather Reports


time (UTC)temp
F
wind
direction
speed
knots
gust
knots
rain 1hr
in
rain 24hr
in
rain mn
in
humidity
%
barometer
mb
20260903074559 84 140 0.9 3.5 0.00 0.00 0.00 11 949.3
20260903073047 85 305 0.0 2.6 0.00 0.00 0.00 12 949.2
20260903071550 87 242 0.9 5.2 0.00 0.00 0.00 10 949.1
20260903070041 87 110 4.3 7.8 0.00 0.00 0.00 9 949.1
20260903064540 88 110 6.1 10.4 0.00 0.00 0.00 9 949.0
20260903063041 87 129 7.0 10.4 0.00 0.00 0.00 9 949.0
20260903061549 87 105 7.0 10.4 0.00 0.00 0.00 9 949.0
20260903060038 88 112 8.7 11.3 0.00 0.00 0.00 9 949.0
20260903054546 88 113 6.1 8.7 0.00 0.00 0.00 10 949.2
20260903053059 88 107 5.2 9.6 0.00 0.00 0.00 10 949.2
20260903051536 88 121 5.2 7.0 0.00 0.00 0.00 10 949.2
20260903050035 88 108 5.2 7.8 0.00 0.00 0.00 10 949.2
20260903044545 89 113 4.3 7.8 0.00 0.00 0.00 9 949.3
20260903043034 89 107 6.1 9.6 0.00 0.00 0.00 9 949.3
20260903041534 89 105 7.0 8.7 0.00 0.00 0.00 9 949.2
20260903040034 89 5.2 7.8 0.00 0.00 0.00 9 949.1
20260903034532 89 4.3 6.1 0.00 0.00 0.00 10 948.9
20260903033031 90 4.3 7.0 0.00 0.00 0.00 10 948.7
20260903031531 91 4.3 6.1 0.00 0.00 0.00 10 948.7
20260903030039 92 117 1.7 4.3 0.00 0.00 0.00 9 948.6
20260903024539 93 190 2.6 6.1 0.00 0.00 0.00 9 948.4
20260903023029 94 203 3.5 7.8 0.00 0.00 0.00 9 948.4
20260903021533 95 181 6.1 11.3 0.00 0.00 0.00 9 948.3
20260903020031 96 240 5.2 10.4 0.00 0.00 0.00 8 948.4
20260903014527 97 173 8.7 13.9 0.00 0.00 0.00 8 948.4
20260903013027 98 172 7.8 11.3 0.00 0.00 0.00 7 948.3
20260903011538 98 212 10.4 13.9 0.00 0.00 0.00 7 948.2
20260903010025 98 152 9.6 16.5 0.00 0.00 0.00 7 948.4
20260903004531 98 178 7.8 19.1 0.00 0.00 0.00 7 948.5
20260903003023 99 182 11.3 18.2 0.00 0.00 0.00 7 948.4
20260903001522 99 136 13.0 20.9 0.00 0.00 0.00 7 948.4
20260903000023 99 148 7.0 16.5 0.00 0.00 0.00 9 948.4
20260902234521 99 7.8 13.9 0.00 0.00 0.00 8 948.6
20260902233028 99 139 7.0 13.0 0.00 0.00 0.00 9 948.7
20260902231518 98 152 13.0 19.1 0.00 0.00 0.00 10 948.8
20260902230015 98 8.7 17.4 0.00 0.00 0.00 10 948.9
20260902224514 98 169 7.8 17.4 0.00 0.00 0.00 10 949.2
20260902223011 99 8.7 17.4 0.00 0.00 0.00 10 949.3
20260902221507 98 168 9.6 13.9 0.00 0.00 0.00 11 949.7
20260902220007 98 7.8 20.9 0.00 0.00 0.00 11 949.8
20260902214505 97 171 12.2 21.7 0.00 0.00 0.00 11 950.1
20260902213003 97 163 6.1 20.9 0.00 0.00 0.00 12 950.1
20260902211503 97 188 10.4 16.5 0.00 0.00 0.00 11 950.4
20260902210002 97 224 7.8 14.8 0.00 0.00 0.00 12 950.6
20260902204501 95 214 7.0 14.8 0.00 0.00 0.00 12 950.8
20260902203101 96 229 8.7 15.6 0.00 0.00 0.00 11 951.1
20260902201630 95 240 8.7 13.0 0.00 0.00 0.00 12 951.4
20260902200109 96 192 8.7 13.0 0.00 0.00 0.00 12 951.5
20260902194559 94 140 9.6 13.9 0.00 0.00 0.00 12 951.5
20260902193055 94 164 10.4 16.5 0.00 0.00 0.00 12 951.7
20260902191553 93 241 7.0 14.8 0.00 0.00 0.00 14 951.9
20260902190051 93 191 6.1 13.9 0.00 0.00 0.00 15 952.0
20260902184550 93 142 5.2 13.0 0.00 0.00 0.00 16 952.2
20260902183053 92 229 7.0 13.9 0.00 0.00 0.00 16 952.5
20260902181554 91 6.1 9.6 0.00 0.00 0.00 16 952.6
20260902180056 90 159 4.3 9.6 0.00 0.00 0.00 17 952.7
20260902174545 89 198 7.8 15.6 0.00 0.00 0.00 19 952.9
20260902173043 89 238 7.0 12.2 0.00 0.00 0.00 20 952.9
20260902171545 88 243 8.7 14.8 0.00 0.00 0.00 21 952.9
20260902170041 87 206 4.3 9.6 0.00 0.00 0.00 22 952.8
20260902164551 86 243 6.1 9.6 0.00 0.00 0.00 22 952.8
20260902163043 86 240 2.6 7.8 0.00 0.00 0.00 21 952.8
20260902161539 86 242 3.5 9.6 0.00 0.00 0.00 20 952.7
20260902160038 85 241 6.1 9.6 0.00 0.00 0.00 19 952.7
20260902154543 85 5.2 7.8 0.00 0.00 0.00 20 952.6
20260902153038 85 259 3.5 7.8 0.00 0.00 0.00 20 952.5
20260902151534 85 207 3.5 7.0 0.00 0.00 0.00 19 952.4
20260902150032 85 233 2.6 8.7 0.00 0.00 0.00 19 952.4
20260902144530 83 182 1.7 4.3 0.00 0.00 0.00 21 952.3
20260902143028 83 196 0.0 2.6 0.00 0.00 0.00 24 952.1
20260902141528 82 252 0.9 2.6 0.00 0.00 0.00 24 952.0
20260902140034 81 120 3.5 7.0 0.00 0.00 0.00 24 951.7
20260902134523 81 110 5.2 7.8 0.00 0.00 0.00 25 951.5
20260902133022 79 104 5.2 7.8 0.00 0.00 0.00 29 951.5
20260902131519 80 3.5 5.2 0.00 0.00 0.00 28 951.4
20260902130017 81 3.5 5.2 0.00 0.00 0.00 27 951.3
20260902124518 82 143 3.5 6.1 0.00 0.00 0.00 25 951.3
20260902123014 82 135 3.5 6.1 0.00 0.00 0.00 28 951.1
20260902121509 82 151 3.5 7.0 0.00 0.00 0.00 29 950.9
20260902120010 82 139 3.5 7.0 0.00 0.00 0.00 32 951.0
20260902114508 82 135 2.6 4.3 0.00 0.00 0.00 32 951.0
20260902113006 83 137 0.9 3.5 0.00 0.00 0.00 30 950.9
20260902111503 84 133 2.6 4.3 0.00 0.00 0.00 27 950.8
20260902110111 84 179 2.6 5.2 0.00 0.00 0.00 25 950.7
20260902104559 85 208 3.5 6.1 0.00 0.00 0.00 27 950.7
20260902103106 84 179 3.5 8.7 0.00 0.00 0.00 37 950.5
20260902101558 85 193 5.2 8.7 0.00 0.00 0.00 38 950.6
20260902100054 85 0.9 5.2 0.00 0.00 0.00 41 950.5
20260902094551 85 193 2.6 5.2 0.00 0.00 0.00 41 950.5
20260902093111 86 236 3.5 7.0 0.00 0.00 0.00 42 950.4
20260902091552 87 3.5 8.7 0.00 0.00 0.00 42 950.3
20260902090049 87 198 6.1 10.4 0.00 0.00 0.00 42 950.4
20260902084552 88 203 3.5 13.0 0.00 0.00 0.00 40 950.3
20260902083046 89 195 7.8 12.2 0.00 0.00 0.00 40 950.2
20260902081533 90 179 7.8 15.6 0.00 0.00 0.00 39 950.0
20260902080029 90 165 7.0 15.6 0.00 0.00 0.00 37 949.9